Tracking 19254 objects as of 21-Oct-2018
HD Live streaming from Space Station
objects crossing your sky now

SOMP-2

Track SOMP-2 now!
10-day predictions
SOMP-2 is classified as:


NORAD ID: 42701
Int'l Code: 1998-067LJ
Perigee: 339.8 km
Apogee: 344.5 km
Inclination: 51.6 °
Period: 91.2 minutes
Semi major axis: 6713 km
RCS: Unknown
Launch date: November 20, 1998
Source: Germany (GER)
Launch site: TYURATAM MISSILE AND SPACE COMPLEX (TTMTR)

Uplink (MHz):
Downlink (MHz): 437.405
Beacon (MHz):
Mode: 9600bps GMSK
Call sign:
Status: Inactive

aabbcc
Your satellite tracking list
Your tracking list is empty




NASA's NSSDC Master Catalog

Two Line Element Set (TLE):
1 42701U 98067LJ  18294.50830371  .00040470  00000-0  23190-3 0  9998
2 42701  51.6341  67.7555 0003569 342.2782  17.8093 15.78386122 81888
Source of the keplerian elements: AMSAT